Location: Jackson
(42.2460°N, 84.4010°W)
Time: 10:54:41
(UTC-04:00)

Injun/Solrad 3 - Pass Details

Date: 11 February 2026
Orbit: 871 x 985 km, 66.8° (Epoch: 16 March)

Event Time Altitude Azimuth Distance (km) Brightness Sun altitude
Rises 20:41:28 0° 336° (NNW) 3,554 11.4 -29.4°
Reaches altitude 10° 20:44:26 10° 349° (N) 2,628 10.4 -29.9°
Enters shadow 20:46:51 20° 9° (N) 2,037 9.6 -30.4°
